Hauptseite
METAR-TAF:

METAR-TAF

Flughäfen :

Flugplatz Turin-Aeritalia

Turin, Italien

Breite: 45-05-20N, Länge: 007-36-20E, Höhe: 288 m

Beobachtung

Neuester Wetterbericht von vor 10 Stunden und 44 Minuten, um 16:50 UTC
Windstille
Temperatur 18°C
Luftfeuchtigkeit 64%
Luftdruck 1019 hPa
Sichtweite: 9000 m
Aufgelockert bewölkt in der Höhe von 3000 ft

METAR: LIMA 151650Z 00000KT 9000 SCT030 18/11 Q1019

Zeit: 05:34 (03:34 UTC)


TAF: fehlend

Wetterbeobachtungen und Prognosen von mehr als 4000 Flughäfen (METAR und TAF Bericht).

Die verfügbaren Stationen werden durch gelbe und rote Markierungen auf der Karte dargestellt.

Führen Sie die Maus auf sie, um den Namen der Station zu sehen.

Darauf klicken, um die Beobachtung von Wetterbeobachtungen und Prognosen zu sehen.

Um die Karte zu ändern : klicken Sie auf den grünen Tasten mit einem schwarzen Kreuz Zum Vergrößern, auf den grünen Button mit einem Gedankenstrich zu verkleinern, oder auf die grünen Pfeile für benachbarte Karten.


METAR-TAF: